1495994400.33,46545,20.31,74604.0,4.51,-31.23,-31.57,0,*78
1495994401.61,46546,20.31,74608.3,4.51,-31.11,-31.61,0,*7F
1495994402.89,46547,20.31,74604.3,4.51,-31.11,-31.61,0,*7E
1495994404.09,46548,20.31,74606.5,4.49,-31.29,-31.67,0,*75
1495994405.31,46549,20.31,74604.5,4.49,-31.29,-31.61,0,*72
1495994406.59,46550,20.31,74604.8,4.51,-31.11,-31.57,0,*7D
1495994407.81,46551,20.31,74604.8,4.47,-31.17,-31.67,0,*7E
1495994409.03,46552,20.31,74606.5,4.47,-31.17,-31.67,0,*7D
1495994410.29,46553,20.31,74602.3,4.49,-31.11,-31.61,0,*72
1495994411.52,46554,20.31,74604.8,4.49,-31.11,-31.45,0,*73
1495994412.78,46555,20.31,74604.0,4.49,-31.11,-31.51,0,*77
1495994414.05,46556,20.31,74602.0,4.51,-30.95,-31.39,0,*7E
1495994415.26,46557,20.25,74602.0,4.49,-31.01,-31.45,0,*71
1495994416.54,46558,20.31,74606.0,4.47,-31.11,-31.51,0,*74
1495994417.76,46559,20.31,74604.0,4.47,-31.01,-31.45,0,*71
1495994419.01,46560,20.31,74606.3,4.47,-31.01,-31.51,0,*7E
1495994420.29,46561,20.31,74602.0,4.47,-31.11,-31.51,0,*7E
1495994421.51,46562,20.31,74606.3,4.49,-31.01,-31.51,0,*72
1495994422.74,46563,20.31,74606.5,4.47,-31.01,-31.45,0,*78
1495994423.97,46564,20.31,74602.8,4.47,-30.83,-31.29,0,*7E
1495994425.22,46565,20.31,74606.3,4.47,-30.73,-31.01,0,*7A
1495994426.5,46566,20.31,74602.0,4.47,-30.73,-31.11,0,*78
1495994427.7,46567,20.25,74602.3,4.45,-30.83,-31.33,0,*74
1495994428.93,46568,20.25,74600.3,4.47,-30.83,-31.17,0,*7F
1495994430.18,46569,20.31,74606.5,4.47,-30.73,-31.01,0,*76
1495994431.45,46570,20.31,74602.5,4.47,-30.77,-31.11,0,*7B
1495994432.73,46571,20.31,74600.8,4.47,-30.77,-31.11,0,*7A
1495994433.98,46572,20.31,74604.3,4.47,-30.77,-31.17,0,*7F
1495994435.21,46573,20.31,74604.0,4.49,-30.61,-31.01,0,*70
1495994436.46,46574,20.31,74602.3,4.47,-30.77,-31.29,0,*74
1495994437.65,46575,20.31,74606.5,4.45,-31.05,-31.33,0,*78
1495994438.93,46576,20.31,74606.3,4.47,-30.73,-31.11,0,*79
1495994440.13,46577,20.31,74604.8,4.45,-30.83,-31.17,0,*73
1495994441.39,46578,20.25,74602.3,4.47,-30.95,-31.29,0,*74
1495994442.62,46579,20.25,74600.0,4.47,-30.83,-31.29,0,*72
1495994443.87,46580,20.31,74606.5,4.47,-30.95,-31.29,0,*73
1495994445.1,46581,20.31,74606.5,4.47,-30.83,-31.29,0,*75
1495994446.33,46582,20.31,74606.3,4.45,-30.77,-31.17,0,*72
1495994447.6,46583,20.31,74606.3,4.47,-30.61,-31.11,0,*70
1495994448.85,46584,20.25,74600.8,4.47,-30.61,-31.01,0,*76
1495994450.11,46585,20.31,74604.0,4.47,-30.55,-30.95,0,*7C
1495994451.37,46586,20.31,74606.5,4.45,-30.77,-31.23,0,*71
1495994452.64,46587,20.25,74600.3,4.47,-30.73,-31.11,0,*77
1495994453.91,46588,20.31,74604.3,4.47,-30.55,-30.95,0,*71
1495994455.16,46589,20.31,74600.0,4.47,-30.73,-31.17,0,*7F
1495994456.42,46590,20.31,74604.8,4.49,-30.73,-31.11,0,*7F
1495994457.67,46591,20.31,74604.0,4.49,-30.73,-31.11,0,*7E
1495994458.92,46592,20.31,74606.5,4.49,-30.73,-31.11,0,*7D
1495994460.15,46593,20.31,74604.8,4.49,-30.77,-31.17,0,*7E
1495994461.41,46594,20.31,74606.0,4.47,-30.77,-31.17,0,*77
1495994462.64,46595,20.31,74604.0,4.47,-30.83,-31.17,0,*7D
1495994463.89,46596,20.31,74602.3,4.49,-30.73,-31.11,0,*79
1495994465.14,46597,20.31,74604.8,4.49,-30.73,-31.11,0,*78
1495994466.36,46598,20.31,74604.3,4.49,-30.55,-31.01,0,*72
1495994467.61,46599,20.31,74602.8,4.49,-30.61,-30.95,0,*78
1495994468.83,46600,20.31,74604.0,4.49,-30.55,-30.83,0,*7B
1495994470.08,46601,20.31,74602.8,4.49,-30.55,-30.95,0,*7D
1495994471.33,46602,20.31,74604.3,4.49,-30.61,-31.11,0,*74
1495994472.56,46603,20.25,74602.5,4.49,-30.55,-30.83,0,*78
1495994473.78,46604,20.31,74604.0,4.49,-30.55,-30.83,0,*7F
1495994475.05,46605,20.31,74602.0,4.51,-30.73,-30.95,0,*74
1495994476.3,46606,20.31,74606.3,4.49,-30.61,-30.95,0,*7D
1495994477.57,46607,20.31,74604.8,4.51,-30.55,-30.89,0,*7F
1495994478.85,46608,20.31,74602.3,4.51,-30.51,-30.77,0,*75
1495994480.12,46609,20.31,74604.3,4.51,-30.51,-30.95,0,*78
1495994481.38,46610,20.31,74600.3,4.51,-30.55,-30.95,0,*74
1495994482.66,46611,20.31,74600.5,4.51,-30.51,-30.89,0,*7C
1495994483.93,46612,20.25,74602.0,4.51,-30.77,-31.11,0,*7B
1495994485.18,46613,20.31,74604.0,4.49,-30.61,-31.11,0,*74
1495994486.43,46614,20.31,74604.5,4.51,-30.67,-31.11,0,*7C
1495994487.65,46615,20.31,74600.8,4.51,-30.67,-31.05,0,*78
1495994488.88,46616,20.25,74600.8,4.51,-30.67,-31.05,0,*7B
1495994490.1,46617,20.31,74604.3,4.51,-30.67,-31.05,0,*7A
1495994491.33,46618,20.25,74602.5,4.49,-30.61,-31.01,0,*7E
1495994492.55,46619,20.31,74602.3,4.49,-30.61,-31.01,0,*7F
1495994493.77,46620,20.31,74602.5,4.51,-30.67,-31.05,0,*7E
1495994495.0,46621,20.31,74600.8,4.51,-30.67,-31.05,0,*7F
1495994496.24,46622,20.31,74606.5,4.51,-30.55,-31.05,0,*7D
1495994497.49,46623,20.31,74602.8,4.53,-30.39,-30.89,0,*71
1495994498.74,46624,20.31,74600.5,4.53,-30.39,-30.77,0,*77
1495994499.99,46625,20.25,74602.5,4.53,-30.55,-31.11,0,*7D
1495994501.26,46626,20.31,74600.0,4.51,-30.73,-31.11,0,*78
1495994502.49,46627,20.31,74600.5,4.53,-30.67,-31.11,0,*7E
1495994503.74,46628,20.31,74602.5,4.53,-30.73,-31.11,0,*74
1495994504.95,46629,20.25,74600.8,4.53,-30.67,-31.05,0,*75
1495994506.2,46630,20.25,74602.5,4.53,-30.77,-31.11,0,*79
1495994507.45,46631,20.25,74600.3,4.53,-30.73,-31.11,0,*7C
1495994508.7,46632,20.31,74602.3,4.51,-30.77,-31.29,0,*72
1495994509.96,46633,20.31,74604.3,4.53,-30.89,-31.23,0,*7A
1495994511.23,46634,20.31,74600.3,4.51,-30.77,-31.11,0,*7F
1495994512.49,46635,20.31,74600.0,4.53,-30.89,-31.11,0,*7D
1495994513.74,46636,20.31,74602.8,4.51,-30.89,-31.29,0,*77
1495994515.01,46637,20.31,74600.8,4.51,-30.89,-31.23,0,*7C
1495994516.26,46638,20.31,74604.0,4.51,-30.89,-31.29,0,*79
1495994517.54,46639,20.31,74602.3,4.51,-30.77,-31.23,0,*73
1495994518.81,46640,20.31,74600.3,4.51,-30.73,-31.23,0,*79
1495994520.07,46641,20.31,74602.3,4.51,-30.67,-31.11,0,*7C
1495994521.32,46642,20.31,74600.5,4.53,-30.73,-31.11,0,*78
1495994522.55,46643,20.25,74600.5,4.53,-30.67,-31.11,0,*7C
1495994523.78,46644,20.25,74600.8,4.53,-30.67,-31.11,0,*7B
1495994525.01,46645,20.25,74602.3,4.53,-30.67,-31.11,0,*7A
1495994526.26,46646,20.31,74602.5,4.53,-30.73,-31.11,0,*7C
1495994527.52,46647,20.31,74600.0,4.53,-30.89,-31.11,0,*78
1495994528.77,46648,20.25,74602.0,4.53,-30.73,-31.11,0,*72
1495994530.02,46649,20.31,74602.0,4.53,-30.73,-31.11,0,*73
1495994531.23,46650,20.31,74602.8,4.53,-30.67,-31.05,0,*7B
1495994532.43,46651,20.31,74600.0,4.53,-30.67,-31.05,0,*7A
1495994533.68,46652,20.31,74604.3,4.53,-30.77,-31.11,0,*7D
1495994534.89,46653,20.31,74602.3,4.53,-30.67,-31.05,0,*78
1495994536.14,46654,20.31,74602.3,4.53,-30.77,-31.11,0,*7B
1495994537.39,46655,20.31,74600.0,4.53,-30.77,-31.11,0,*7A
1495994538.63,46656,20.31,74602.0,4.53,-30.67,-31.11,0,*78
1495994539.88,46657,20.25,74602.8,4.53,-30.51,-30.89,0,*7C
1495994541.13,46658,20.31,74602.0,4.53,-30.55,-30.89,0,*77
1495994542.41,46659,20.25,74602.3,4.51,-30.51,-30.89,0,*70
1495994543.65,46660,20.25,74600.0,4.55,-30.61,-31.05,0,*78
1495994544.88,46661,20.31,74600.8,4.53,-30.67,-31.11,0,*7C
1495994546.11,46662,20.25,74600.3,4.53,-30.67,-31.11,0,*7F
1495994547.32,46663,20.25,74602.5,4.53,-30.67,-31.05,0,*7B
1495994548.57,46664,20.31,74600.5,4.53,-30.73,-31.11,0,*7C
1495994549.82,46665,20.25,74600.8,4.53,-30.77,-31.11,0,*79
1495994551.08,46666,20.31,74602.3,4.53,-30.77,-31.23,0,*7B
1495994552.34,46667,20.31,74600.8,4.53,-30.77,-31.23,0,*7A
1495994553.59,46668,20.31,74600.5,4.53,-30.73,-31.11,0,*70
1495994554.82,46669,20.31,74600.5,4.53,-30.89,-31.29,0,*7F
1495994556.07,46670,20.25,74602.3,4.55,-30.73,-31.17,0,*79
1495994557.33,46671,20.31,74600.5,4.53,-30.89,-31.23,0,*7C
1495994558.58,46672,20.25,74602.8,4.53,-30.77,-31.23,0,*7E
1495994559.84,46673,20.25,74598.3,4.53,-30.89,-31.23,0,*7E
1495994561.07,46674,20.31,74604.8,4.53,-30.89,-31.29,0,*73
1495994562.33,46675,20.31,74604.0,4.53,-30.89,-31.23,0,*78
1495994563.58,46676,20.31,74602.0,4.53,-30.77,-31.23,0,*7A
1495994564.81,46677,20.31,74604.0,4.53,-30.89,-31.29,0,*70
1495994566.07,46678,20.25,74600.3,4.53,-30.95,-31.23,0,*78
1495994567.34,46679,20.31,74606.0,4.51,-30.77,-31.23,0,*77
1495994568.62,46680,20.31,74602.8,4.51,-30.77,-31.23,0,*71
1495994569.9,46681,20.31,74600.8,4.51,-30.89,-31.23,0,*71
1495994571.17,46682,20.25,74598.8,4.51,-30.77,-31.23,0,*73
1495994572.38,46683,20.31,74602.8,4.49,-30.83,-31.33,0,*71
1495994573.65,46684,20.31,74600.0,4.51,-30.89,-31.23,0,*74
1495994574.9,46685,20.31,74602.3,4.51,-30.51,-31.05,0,*74
1495994576.16,46686,20.25,74600.5,4.51,-30.55,-31.11,0,*76
1495994577.41,46687,20.25,74602.3,4.51,-30.67,-31.11,0,*76
1495994578.67,46688,20.31,74602.8,4.49,-30.73,-31.11,0,*75
1495994579.92,46689,20.25,74602.8,4.49,-30.73,-31.11,0,*74
1495994581.16,46690,20.31,74600.0,4.49,-30.55,-30.95,0,*75
1495994582.43,46691,20.25,74600.5,4.51,-30.51,-30.95,0,*79
1495994583.7,46692,20.25,74600.8,4.51,-30.55,-31.11,0,*73
1495994584.92,46693,20.31,74602.8,4.51,-30.67,-31.05,0,*76
1495994586.17,46694,20.31,74600.3,4.51,-30.67,-31.11,0,*74
1495994587.39,46695,20.31,74602.3,4.51,-30.67,-31.05,0,*70
1495994588.62,46696,20.31,74602.0,4.51,-30.67,-31.05,0,*73
1495994589.89,46697,20.31,74602.3,4.51,-30.73,-31.11,0,*72
1495994591.12,46698,20.25,74602.8,4.49,-30.95,-31.33,0,*7C
1495994592.39,46699,20.31,74600.8,4.51,-30.95,-31.57,0,*76
1495994593.59,46700,20.25,74600.3,4.49,-31.17,-31.45,0,*76
1495994594.87,46701,20.31,74602.0,4.51,-30.95,-31.39,0,*7E
1495994596.12,46702,20.25,74598.8,4.51,-30.95,-31.29,0,*7C
1495994597.32,46703,20.31,74602.3,4.49,-31.01,-31.45,0,*72
1495994598.52,46704,20.31,74604.8,4.49,-31.01,-31.33,0,*74
1495994599.75,46705,20.31,74602.0,4.49,-31.11,-31.45,0,*75
1495994600.95,46706,20.25,74602.0,4.49,-31.05,-31.45,0,*73
1495994602.19,46707,20.25,74600.8,4.49,-31.11,-31.45,0,*77
1495994603.43,46708,20.25,74596.8,4.49,-31.11,-31.45,0,*78
1495994604.65,46709,20.25,74600.5,4.51,-31.05,-31.45,0,*75
1495994605.91,46710,20.25,74600.5,4.47,-31.11,-31.45,0,*7F
1495994607.16,46711,20.31,74602.3,4.47,-31.01,-31.51,0,*7A
1495994608.37,46712,20.31,74600.5,4.45,-31.05,-31.57,0,*79
1495994609.57,46713,20.25,74598.3,4.45,-31.17,-31.67,0,*78
1495994610.79,46714,20.25,74602.5,4.47,-31.17,-31.67,0,*7D
1495994612.04,46715,20.25,74602.3,4.47,-31.17,-31.61,0,*7A
1495994613.27,46716,20.25,74600.8,4.45,-31.23,-31.67,0,*7A
1495994614.49,46717,20.25,74600.3,4.45,-31.23,-31.67,0,*7B
1495994615.75,46718,20.31,74600.0,4.47,-31.29,-31.61,0,*7A
1495994616.99,46719,20.31,74604.0,4.45,-31.23,-31.73,0,*70
1495994618.23,46720,20.31,74602.3,4.43,-31.05,-31.57,0,*7E
1495994619.48,46721,20.31,74602.8,4.43,-31.05,-31.51,0,*79
1495994620.69,46722,20.25,74602.8,4.43,-31.01,-31.33,0,*7A
1495994621.91,46723,20.25,74596.5,4.43,-31.01,-31.33,0,*7B
1495994623.11,46724,20.31,74600.5,4.41,-31.05,-31.45,0,*7B
1495994624.36,46725,20.25,74600.3,4.43,-30.89,-31.33,0,*7C
1495994625.6,46726,20.25,74598.5,4.43,-30.89,-31.33,0,*7F
1495994626.85,46727,20.31,74602.8,4.43,-30.89,-31.33,0,*7E
1495994628.1,46728,20.31,74600.3,4.41,-30.95,-31.39,0,*74
1495994629.31,46729,20.25,74600.0,4.43,-31.01,-31.33,0,*71
1495994630.54,46730,20.25,74600.0,4.43,-30.83,-31.33,0,*72
1495994631.78,46731,20.25,74598.5,4.43,-30.89,-31.33,0,*79
1495994633.03,46732,20.25,74596.5,4.43,-30.83,-31.23,0,*71
1495994634.31,46733,20.25,74600.3,4.43,-30.89,-31.23,0,*7A
1495994635.53,46734,20.31,74600.0,4.43,-30.83,-31.33,0,*76
1495994636.76,46735,20.25,74602.8,4.43,-30.83,-31.33,0,*77
1495994637.97,46736,20.31,74602.0,4.43,-31.01,-31.33,0,*7F
1495994639.19,46737,20.25,74596.8,4.43,-31.01,-31.33,0,*7E
1495994640.41,46738,20.25,74596.8,4.43,-30.83,-31.05,0,*7F
1495994641.66,46739,20.25,74600.0,4.43,-30.77,-31.01,0,*71
1495994642.88,46740,20.25,74600.0,4.43,-30.67,-31.05,0,*7A
1495994644.13,46741,20.25,74598.0,4.43,-30.77,-31.17,0,*79
1495994645.41,46742,20.25,74598.5,4.43,-30.77,-31.23,0,*7D
1495994646.64,46743,20.25,74600.8,4.41,-30.83,-31.11,0,*74
1495994647.89,46744,20.25,74602.5,4.43,-30.89,-31.17,0,*7D
1495994649.16,46745,20.25,74598.0,4.43,-30.89,-31.23,0,*7B
1495994650.44,46746,20.31,74600.0,4.43,-30.89,-31.23,0,*78
1495994651.67,46747,20.25,74600.8,4.41,-30.95,-31.29,0,*7C
1495994652.92,46748,20.25,74598.8,4.43,-30.77,-31.17,0,*70
1495994654.14,46749,20.25,74600.5,4.43,-30.67,-31.05,0,*73
1495994655.39,46750,20.25,74602.0,4.43,-30.77,-31.17,0,*79
1495994656.67,46751,20.31,74602.0,4.43,-30.77,-31.23,0,*7F
1495994657.9,46752,20.25,74596.8,4.43,-30.83,-31.17,0,*70
1495994659.14,46753,20.25,74596.8,4.43,-31.01,-31.39,0,*76
1495994660.39,46754,20.25,74600.8,4.41,-30.95,-31.39,0,*7F
1495994661.61,46755,20.25,74602.0,4.43,-31.01,-31.33,0,*7A
1495994662.82,46756,20.25,74602.0,4.43,-31.01,-31.33,0,*79
1495994664.07,46757,20.25,74598.3,4.43,-31.01,-31.39,0,*72
1495994665.31,46758,20.25,74598.8,4.41,-31.11,-31.57,0,*76
1495994666.54,46759,20.25,74600.5,4.41,-30.95,-31.29,0,*73
1495994667.82,46760,20.25,74596.5,4.43,-30.89,-31.23,0,*7C
1495994669.05,46761,20.25,74600.5,4.41,-30.83,-31.23,0,*75
1495994670.28,46762,20.25,74600.3,4.41,-30.83,-31.23,0,*76
1495994671.51,46763,20.25,74602.8,4.41,-30.83,-31.23,0,*77
1495994672.74,46764,20.25,74600.0,4.41,-30.89,-31.29,0,*70
1495994673.94,46765,20.25,74602.8,4.41,-30.67,-31.05,0,*7F
1495994675.19,46766,20.25,74600.5,4.43,-30.67,-30.89,0,*7B
1495994676.42,46767,20.25,74600.0,4.41,-30.67,-31.11,0,*78
1495994677.62,46768,20.25,74596.3,4.41,-30.83,-31.05,0,*78
1495994678.9,46769,20.25,74600.0,4.43,-30.61,-30.89,0,*72
1495994680.12,46770,20.25,74596.8,4.43,-30.67,-31.01,0,*7D
1495994681.37,46771,20.31,74602.8,4.41,-30.73,-31.11,0,*7A
1495994682.59,46772,20.31,74600.5,4.43,-30.67,-31.01,0,*7F
1495994683.82,46773,20.25,74600.0,4.43,-30.67,-31.05,0,*7A
1495994685.02,46774,20.25,74600.5,4.41,-30.67,-31.05,0,*7F
1495994686.24,46775,20.25,74602.0,4.43,-30.83,-31.05,0,*76
1495994687.5,46776,20.25,74600.5,4.41,-30.89,-31.23,0,*79
1495994688.75,46777,20.25,74600.5,4.43,-30.83,-31.23,0,*70
1495994690.0,46778,20.31,74602.5,4.43,-31.01,-31.23,0,*74
1495994691.21,46779,20.25,74598.8,4.43,-31.01,-31.33,0,*74
1495994692.44,46780,20.25,74596.0,4.41,-30.89,-31.29,0,*7A
1495994693.64,46781,20.31,74600.0,4.41,-31.05,-31.29,0,*7E
1495994694.89,46782,20.25,74600.0,4.41,-30.95,-31.39,0,*74
1495994696.11,46783,20.31,74600.0,4.41,-31.05,-31.39,0,*7D
1495994697.35,46784,20.31,74602.0,4.43,-30.89,-31.33,0,*77
1495994698.58,46785,20.25,74600.5,4.41,-30.95,-31.29,0,*72
1495994699.83,46786,20.25,74596.5,4.41,-30.73,-31.11,0,*72
1495994701.1,46787,20.25,74598.8,4.43,-30.61,-30.89,0,*72
1495994702.38,46788,20.25,74598.3,4.43,-30.61,-30.89,0,*7D
1495994703.63,46789,20.25,74596.8,4.43,-30.61,-30.83,0,*76
1495994704.86,46790,20.25,74596.3,4.43,-30.67,-30.83,0,*78
1495994706.11,46791,20.25,74600.0,4.43,-30.61,-31.01,0,*74
1495994707.36,46792,20.25,74602.8,4.43,-30.77,-31.05,0,*74
1495994708.58,46793,20.31,74600.0,4.43,-30.83,-31.17,0,*7D
1495994709.86,46794,20.25,74598.8,4.43,-30.89,-31.23,0,*77
1495994711.14,46795,20.25,74598.3,4.43,-30.89,-31.23,0,*76
1495994712.36,46796,20.31,74602.8,4.41,-30.95,-31.29,0,*70
1495994713.61,46797,20.31,74602.3,4.43,-30.77,-31.05,0,*71
1495994714.89,46798,20.25,74602.8,4.43,-30.89,-31.23,0,*7B
1495994716.16,46799,20.25,74598.3,4.43,-30.77,-31.23,0,*7B
1495994717.39,46800,20.25,74600.5,4.41,-30.83,-31.11,0,*7C
1495994718.64,46801,20.25,74600.5,4.43,-30.77,-31.05,0,*71
1495994719.89,46802,20.25,74600.0,4.43,-31.01,-31.23,0,*76
1495994721.1,46803,20.31,74600.3,4.43,-31.01,-31.33,0,*76
1495994722.3,46804,20.25,74596.8,4.41,-31.05,-31.29,0,*7C
1495994723.51,46805,20.25,74602.3,4.43,-31.01,-31.33,0,*70
1495994724.76,46806,20.25,74598.8,4.43,-30.89,-31.33,0,*72
1495994726.01,46807,20.25,74600.5,4.41,-30.77,-31.23,0,*71
1495994727.24,46808,20.25,74598.5,4.41,-30.83,-31.23,0,*75
1495994728.52,46809,20.25,74598.5,4.43,-30.61,-30.89,0,*7B
1495994729.74,46810,20.25,74598.8,4.43,-30.67,-31.01,0,*74
1495994730.94,46811,20.25,74596.8,4.41,-30.83,-31.05,0,*79
1495994732.19,46812,20.25,74596.8,4.43,-30.77,-31.01,0,*77
1495994733.39,46813,20.25,74598.8,4.41,-30.67,-31.05,0,*71
1495994734.6,46814,20.25,74596.8,4.41,-30.83,-31.17,0,*7F
1495994735.84,46815,20.25,74598.5,4.43,-30.77,-31.01,0,*70
1495994737.12,46816,20.25,74598.5,4.43,-30.61,-30.89,0,*75
1495994738.34,46817,20.25,74596.8,4.43,-30.67,-31.05,0,*77
1495994739.62,46818,20.25,74600.3,4.43,-30.61,-30.89,0,*7B
1495994740.84,46819,20.25,74598.8,4.43,-30.67,-31.01,0,*7D
1495994742.09,46820,20.25,74600.3,4.43,-30.77,-31.05,0,*72
1495994743.29,46821,20.25,74598.3,4.41,-30.67,-31.05,0,*70
1495994744.51,46822,20.25,74600.0,4.41,-30.73,-31.05,0,*76
1495994745.74,46823,20.25,74600.8,4.41,-30.83,-31.11,0,*7D
1495994746.96,46824,20.25,74600.5,4.43,-30.83,-31.05,0,*7D
1495994748.19,46825,20.25,74598.5,4.41,-30.83,-31.11,0,*7B
1495994749.44,46826,20.25,74600.3,4.41,-30.61,-30.89,0,*74
1495994750.7,46827,20.25,74598.5,4.43,-30.61,-30.83,0,*7D
1495994751.95,46828,20.25,74600.8,4.43,-30.67,-30.89,0,*7E
1495994753.2,46829,20.25,74598.3,4.43,-30.77,-31.05,0,*7B
1495994754.43,46830,20.25,74598.5,4.43,-30.83,-31.17,0,*7B
1495994755.68,46831,20.25,74600.8,4.43,-30.67,-30.89,0,*76
1495994756.96,46832,20.25,74600.0,4.43,-30.61,-30.77,0,*72
1495994758.24,46833,20.25,74598.8,4.43,-30.61,-30.77,0,*73
1495994759.52,46834,20.25,74600.3,4.43,-30.61,-30.77,0,*74
1495994760.79,46835,20.31,74602.0,4.43,-30.51,-30.61,0,*71
1495994762.05,46836,20.25,74600.5,4.43,-30.51,-30.67,0,*74
1495994763.32,46837,20.25,74602.3,4.43,-30.51,-30.77,0,*74
1495994764.58,46838,20.25,74598.8,4.45,-30.51,-30.77,0,*7D
1495994765.86,46839,20.25,74598.5,4.47,-30.55,-30.77,0,*7A
1495994767.07,46840,20.25,74598.5,4.45,-30.67,-30.83,0,*7C
1495994768.29,46841,20.25,74602.0,4.45,-30.77,-31.01,0,*77
1495994769.54,46842,20.25,74600.5,4.45,-30.61,-30.89,0,*72
1495994770.8,46843,20.25,74598.5,4.45,-30.61,-30.77,0,*72
1495994772.0,46844,20.25,74602.3,4.45,-30.83,-31.05,0,*7D
1495994773.23,46845,20.25,74596.8,4.45,-30.77,-31.01,0,*73
1495994774.43,46846,20.25,74602.5,4.45,-30.67,-31.01,0,*71
1495994775.66,46847,20.25,74602.3,4.47,-30.27,-30.45,0,*77
1495994776.86,46848,20.25,74600.0,4.45,-30.45,-30.67,0,*7E
1495994778.13,46849,20.25,74598.5,4.47,-30.39,-30.73,0,*73
1495994779.36,46850,20.25,74598.5,4.45,-30.33,-30.61,0,*70
1495994780.62,46851,20.25,74600.3,4.45,-30.77,-30.89,0,*77
1495994781.84,46852,20.25,74600.0,4.45,-30.89,-31.17,0,*73
1495994783.1,46853,20.25,74596.8,4.47,-30.95,-31.17,0,*7D
1495994784.29,46854,20.25,74600.0,4.45,-31.05,-31.33,0,*76
1495994785.51,46855,20.25,74596.3,4.47,-31.01,-31.33,0,*71
1495994786.73,46856,20.25,74598.3,4.45,-31.17,-31.39,0,*7D
1495994787.93,46857,20.25,74598.0,4.45,-31.05,-31.33,0,*75
1495994789.12,46858,20.25,74602.5,4.45,-31.05,-31.33,0,*7A
1495994790.34,46859,20.25,74598.8,4.45,-31.01,-31.39,0,*75
1495994791.57,46860,20.25,74600.0,4.45,-31.17,-31.39,0,*78
1495994792.82,46861,20.25,74598.8,4.45,-31.23,-31.39,0,*7E
1495994794.07,46862,20.25,74602.5,4.41,-31.23,-31.57,0,*71
1495994795.32,46863,20.25,74602.5,4.41,-31.11,-31.39,0,*79
1495994796.6,46864,20.25,74600.0,4.43,-30.61,-30.77,0,*71
1495994797.83,46865,20.25,74596.8,4.43,-30.67,-31.01,0,*76
1495994799.06,46866,20.25,74596.3,4.41,-30.67,-30.73,0,*73
1495994800.31,46867,20.25,74598.3,4.43,-30.77,-31.05,0,*71
1495994801.56,46868,20.25,74602.3,4.41,-30.89,-31.23,0,*79
1495994802.78,46869,20.25,74600.5,4.41,-31.05,-31.23,0,*7D
1495994804.01,46870,20.25,74598.3,4.41,-30.83,-30.95,0,*76
1495994805.26,46871,20.25,74596.8,4.43,-30.61,-30.83,0,*7E
1495994806.51,46872,20.25,74598.5,4.45,-30.61,-30.89,0,*71
1495994807.79,46873,20.25,74596.8,4.43,-30.77,-30.89,0,*71
1495994809.02,46874,20.25,74600.0,4.43,-30.83,-31.05,0,*78
1495994810.27,46875,20.25,74598.8,4.43,-30.67,-30.89,0,*76
1495994811.53,46876,20.25,74602.3,4.43,-30.61,-30.83,0,*79
1495994812.78,46877,20.25,74598.3,4.43,-30.61,-30.83,0,*78
1495994814.01,46878,20.25,74600.3,4.41,-30.67,-30.73,0,*7C
1495994815.26,46879,20.25,74602.0,4.43,-30.51,-30.83,0,*75
1495994816.54,46880,20.25,74596.0,4.43,-30.61,-30.89,0,*7A
1495994817.79,46881,20.25,74600.5,4.43,-30.61,-30.83,0,*71
1495994819.0,46882,20.25,74596.3,4.41,-30.67,-30.83,0,*76
1495994820.26,46883,20.25,74602.8,4.45,-30.61,-30.77,0,*7E
1495994821.49,46884,20.25,74602.5,4.45,-30.67,-30.89,0,*7E
1495994822.72,46885,20.25,74598.5,4.45,-30.61,-30.83,0,*73
1495994823.97,46886,20.25,74596.5,4.45,-30.61,-30.77,0,*7B
1495994825.2,46887,20.25,74596.3,4.45,-30.33,-30.51,0,*79
1495994826.43,46888,20.25,74596.8,4.45,-30.67,-30.89,0,*72
1495994827.66,46889,20.25,74600.3,4.45,-30.61,-30.83,0,*7F
1495994828.91,46890,20.25,74602.5,4.45,-30.51,-30.77,0,*7F
1495994830.14,46891,20.25,74600.8,4.45,-30.61,-30.83,0,*76
1495994831.4,46892,20.25,74600.8,4.45,-30.61,-30.89,0,*7F
1495994832.63,46893,20.25,74598.5,4.45,-30.61,-30.83,0,*74
1495994833.88,46894,20.25,74600.0,4.47,-30.55,-30.83,0,*76
1495994835.08,46895,20.25,74598.5,4.45,-30.67,-31.01,0,*7F
1495994836.35,46896,20.25,74596.8,4.47,-30.61,-30.95,0,*74
1495994837.57,46897,20.25,74598.0,4.45,-30.77,-31.01,0,*7C
1495994838.85,46898,20.25,74596.5,4.47,-30.73,-30.95,0,*79
1495994840.12,46899,20.25,74598.5,4.47,-30.73,-30.95,0,*78
1495994841.37,46900,20.25,74598.5,4.47,-30.55,-30.83,0,*7A
1495994842.62,46901,20.25,74600.8,4.45,-30.61,-30.89,0,*74
1495994843.85,46902,20.25,74596.8,4.45,-30.61,-30.83,0,*7D
1495994845.1,46903,20.25,74600.8,4.47,-30.45,-30.73,0,*77
1495994846.38,46904,20.25,74602.3,4.47,-30.61,-30.95,0,*7E
1495994847.61,46905,20.25,74598.3,4.45,-30.83,-31.23,0,*7D
1495994848.86,46906,20.25,74596.5,4.47,-30.77,-31.01,0,*77
1495994850.11,46907,20.25,74598.3,4.47,-30.61,-30.83,0,*7A
1495994851.36,46908,20.25,74596.0,4.47,-30.61,-31.01,0,*7E
1495994852.64,46909,20.25,74598.5,4.47,-30.77,-31.11,0,*79
1495994853.87,46910,20.25,74600.5,4.47,-30.83,-31.17,0,*7C
1495994855.12,46911,20.25,74598.0,4.47,-30.95,-31.17,0,*7A
1495994856.39,46912,20.25,74598.0,4.47,-30.77,-30.95,0,*7E
1495994857.66,46913,20.25,74600.0,4.47,-30.61,-30.95,0,*78
1495994858.92,46914,20.25,74600.8,4.47,-30.61,-30.83,0,*78
1495994860.17,46915,20.25,74600.3,4.47,-30.61,-31.01,0,*72
1495994861.42,46916,20.25,74600.0,4.47,-30.73,-31.01,0,*72
1495994862.66,46917,20.25,74600.3,4.47,-30.73,-31.05,0,*77
1495994863.94,46918,20.25,74598.8,4.47,-30.73,-30.95,0,*70
1495994865.2,46919,20.25,74596.8,4.47,-30.55,-30.95,0,*75
1495994866.46,46920,20.25,74602.0,4.47,-30.55,-30.83,0,*78
1495994867.71,46921,20.25,74598.5,4.47,-30.55,-30.83,0,*79
1495994868.98,46922,20.25,74596.3,4.47,-30.61,-30.95,0,*7A
1495994870.25,46923,20.25,74596.3,4.47,-30.73,-30.95,0,*78
1495994871.5,46924,20.25,74600.3,4.49,-30.73,-30.95,0,*71
1495994872.75,46925,20.25,74598.5,4.49,-30.61,-30.95,0,*73
1495994873.97,46926,20.25,74598.8,4.49,-30.77,-31.01,0,*7B
1495994875.2,46927,20.25,74596.3,4.49,-30.73,-31.01,0,*7E
1495994876.43,46928,20.25,74598.5,4.49,-30.73,-31.17,0,*76
1495994877.66,46929,20.25,74596.3,4.49,-30.83,-31.11,0,*7E
1495994878.89,46930,20.25,74600.8,4.49,-30.77,-31.17,0,*7B
1495994880.14,46931,20.25,74600.5,4.49,-30.73,-30.95,0,*75
1495994881.36,46932,20.25,74602.0,4.49,-30.73,-31.01,0,*7A
1495994882.63,46933,20.25,74600.8,4.47,-30.61,-30.95,0,*7A
1495994883.89,46934,20.25,74598.8,4.51,-30.67,-30.89,0,*71
1495994885.11,46935,20.25,74596.0,4.49,-30.61,-31.01,0,*7E
1495994886.34,46936,20.25,74600.3,4.49,-30.73,-31.01,0,*7E
1495994887.57,46937,20.25,74596.3,4.49,-30.83,-31.11,0,*71
1495994888.82,46938,20.25,74596.3,4.51,-30.67,-30.89,0,*7D
1495994890.07,46939,20.25,74600.8,4.51,-30.73,-31.01,0,*78
1495994891.3,46940,20.25,74598.5,4.49,-30.77,-31.17,0,*7C
1495994892.57,46941,20.25,74596.8,4.51,-30.89,-31.11,0,*73
1495994893.83,46942,20.25,74602.3,4.49,-30.77,-31.11,0,*78
1495994895.05,46943,20.25,74596.3,4.49,-30.73,-31.01,0,*7C
1495994896.33,46944,20.25,74602.0,4.51,-30.89,-31.11,0,*76
1495994897.53,46945,20.25,74598.3,4.49,-30.83,-31.17,0,*72
1495994898.76,46946,20.25,74600.8,4.49,-30.95,-31.29,0,*7B
1495994899.99,46947,20.25,74598.3,4.49,-30.95,-31.29,0,*7A
1495994901.22,46948,20.25,74598.3,4.49,-30.95,-31.29,0,*75
1495994902.45,46949,20.25,74602.3,4.49,-30.95,-31.29,0,*74
1495994903.66,46950,20.25,74602.8,4.49,-30.83,-31.29,0,*7B
1495994904.91,46951,20.25,74600.8,4.49,-30.73,-31.11,0,*7E